sat.trackr.live / text

‹ back to catalog

STARLINK-32878

NORAD 62892 · 2025-024P

PAYLOAD ACTIVE UNKNOWN

§ Identity

Operator
Country
US
Launch date
2025-02-04
Launch site
AFETR
Launch vehicle
Mass (kg)
RCS (m²)

Purposes: comms

External: N2YO · Heavens-Above · Gunter

§ Orbital elements

Epoch: 2026-09-21T09:15:58.516416Z

Period
94.27 min
Inclination
42.9984°
Eccentricity
0.0000862
Mean motion
15.27587802 rev/d
Perigee alt
482.4 km
Apogee alt
483.6 km
Semi-major
6,861.2 km
B*
4.2481e-4
RAAN
300.3079°
Arg perigee
259.8930°
Mean anomaly
100.1825°
Rev number
9,219

§ Raw data

STARLINK-328781 62892U 25024P   26264.38609394  .00011449  00000+0  42481-3 0  99922 62892  42.9984 300.3079 0000862 259.8930 100.1825 15.27587802 92192

JSON: /api/v1/satellites/62892 · /tle

For live sub-satellite position, see the globe view (requires WebGL).

§ Visibility from observer

Set your observer location to see the next 7 days of passes ≥ 10°. The values pass through the URL so the page stays shareable.

No JS? Fill the form by hand. The geolocation button needs JavaScript.